This demonstration page uses our WeatherBlox Daily Observations layout. Learn more.

Left ArrowRight Arrow

Hourly Observations for February 23, 2017

Temp ( °F °C ) Dew Point ( °F °C ) Humidity (%) Winds ( mph kmh ) Pressure ( in mb ) Visibility ( mi km ) Precip ( " mm )
12:53 am 00:53 Clear 52 11.1 51 10.6 97 97 VRB 3 6 29.78 1008 8 13 N/A
1:53 am 01:53 Partly Cloudy 52 11.1 52 11.1 100 100 N N/A 29.79 1009 7 11 N/A
2:16 am 02:16 Mostly Cloudy with Mist and Fog 50 10 50 10 100 100 N N/A 29.83 1010 2 3 N/A
2:35 am 02:35 Cloudy with Mist and Fog 51 10.6 51 10.6 100 100 E 3 6 29.83 1010 4 6 N/A
2:53 am 02:53 Mostly Cloudy with Mist and Fog 52 11.1 52 11.1 100 100 ENE 3 6 29.79 1009 5 8 N/A
3:19 am 03:19 Mostly Cloudy with Mist and Fog 51 10.6 51 10.6 100 100 N N/A 29.83 1010 1 2 N/A
3:27 am 03:27 Mostly Cloudy with Fog 50 10 50 10 100 100 N N/A 29.83 1010 1 1 N/A
3:34 am 03:34 Mostly Cloudy with Mist and Fog 50 10 50 10 100 100 N N/A 29.83 1010 2 3 N/A
3:42 am 03:42 Mostly Cloudy with Mist and Fog 51 10.6 51 10.6 100 100 N N/A 29.83 1010 3 4 N/A
3:53 am 03:53 Cloudy with Mist and Fog 52 11.1 52 11.1 100 100 N N/A 29.79 1009 3 5 N/A
4:53 am 04:53 Cloudy 58 14.4 57 13.9 97 97 SW 5 7 29.80 1009 10 16 N/A
5:53 am 05:53 Cloudy 60 15.6 57 13.9 90 90 WSW 6 9 29.80 1009 10 16 N/A
6:53 am 06:53 Mostly Cloudy 58 14.4 56 13.3 93 93 SW 5 7 29.80 1009 10 16 N/A
7:53 am 07:53 Sunny 58 14.4 56 13.3 93 93 SW 5 7 29.80 1009 10 16 N/A
8:53 am 08:53 Sunny 62 16.7 57 13.9 84 84 SW 7 11 29.81 1010 10 16 N/A
9:53 am 09:53 Mostly Sunny 65 18.3 57 13.9 76 76 SSW 8 13 29.81 1009 10 16 N/A
10:27 am 10:27 Mostly Cloudy 65 18.3 57 13.9 76 76 SW 7 11 29.83 1010 10 16 N/A
10:46 am 10:46 Partly Cloudy 66 18.9 58 14.4 75 75 WSW 9 15 29.83 1010 10 16 N/A
10:53 am 10:53 Partly Cloudy 68 20 58 14.4 70 70 WSW 5 7 29.81 1010 10 16 N/A
11:40 am 11:40 Mostly Cloudy 68 20 58 14.4 70 70 W 6 9 29.80 1009 10 16 N/A
11:53 am 11:53 Cloudy 70 21.1 58 14.4 66 66 VRB 3 6 29.80 1009 10 16 N/A
12:53 pm 12:53 Mostly Cloudy 68 20 56 13.3 65 65 SSW 12 19 29.78 1009 10 16 N/A
1:53 pm 13:53 Cloudy 72 22.2 58 14.4 61 61 S 8 13 29.76 1008 10 16 N/A
2:53 pm 14:53 Cloudy 70 21.1 57 13.9 64 64 SW 8 13 29.75 1007 10 16 N/A
3:53 pm 15:53 Cloudy 70 21.1 56 13.3 61 61 VRB 7 11 29.75 1007 10 16 N/A
4:53 pm 16:53 Cloudy 69 20.6 56 13.3 63 63 SSW 6 9 29.76 1008 10 16 N/A
5:53 pm 17:53 Cloudy 68 20 56 13.3 65 65 VRB 5 7 29.77 1008 10 16 N/A
6:53 pm 18:53 Cloudy 67 19.4 56 13.3 68 68 SSW 6 9 29.77 1008 10 16 N/A
7:53 pm 19:53 Cloudy 66 18.9 56 13.3 70 70 N N/A 29.76 1008 10 16 N/A
8:53 pm 20:53 Partly Cloudy 64 17.8 56 13.3 75 75 SSE 3 6 29.75 1008 10 16 N/A
9:53 pm 21:53 Mostly Cloudy 64 17.8 57 13.9 78 78 N N/A 29.75 1008 10 16 N/A
10:53 pm 22:53 Mostly Cloudy 64 17.8 57 13.9 78 78 S 6 9 29.75 1007 10 16 N/A
11:53 pm 23:53 Partly Cloudy 62 16.7 57 13.9 84 84 SSE 5 7 29.73 1007 10 16 N/A

Powered by AerisWeather